Weather History for Gainesville, FL

Change the Weather History Date:

Tuesday, August 27, 2013

  Actual Average Record
Temperature  
Mean Temperature 80 °F 80 °F  
Max Temperature 89 °F 90 °F 100 °F (2011)
Min Temperature 71 °F 71 °F 61 °F (1930)
Degree Days  
Heating Degree Days 0 0  
Month to date heating degree days 0 0  
Since 1 June heating degree days 0 0  
Since 1 July heating degree days 0 0  
Cooling Degree Days 15 15  
Month to date cooling degree days 475 431  
Year to date cooling degree days 1994 1882  
Since 1 June cooling degree days 1462 1372  
Growing Degree Days 30 (Base 50)    
Moisture  
Dew Point 70 °F    
Average Humidity 72    
Maximum Humidity 93    
Minimum Humidity 50    
Precipitation  
Precipitation T in 0.21 in 3.19 in (1988)
Month to date precipitation 2.79 5.58  
Year to date precipitation 36.69 34.76  
Snow  
Snow 0.00 in 0.00 in 0.00 in ()
Month to date snowfall 0.0 0.0  
Since 1 June snowfall 0.0 0.0  
Since 1 July snowfall 0.0 0.0  
Snow Depth 0.00 in    
Sea Level Pressure  
Sea Level Pressure 30.06 in    
Wind  
Wind Speed 5 mph (East)    
Max Wind Speed 13 mph    
Max Gust Speed 17 mph    
Visibility 9 miles    
Events      
T = Trace of Precipitation, MM = Missing Value Source: NWS Daily Summary

Daily Weather History Graph

Daily Weather History Graph

Search for Another Location

Airport:

Trip Planner

Search our weather history database for the weather conditions in past years. The results will help you decide how hot, cold, wet, or windy it might be!

Date:

Astronomy

Aug. 27, 2013 Rise Set
Actual Time 7:03 AM EDT 7:56 PM EDT
Civil Twilight 6:39 AM EDT 8:21 PM EDT
Nautical Twilight 6:10 AM EDT 8:50 PM EDT
Astronomical Twilight 5:40 AM EDT 9:19 PM EDT
Moon No Moon Rise 1:27 PM EDT (8/27)
Length of Visible Light 13h 41m
Length of Day
12h 53m
Waning Gibbous, 57% of the Moon is Illuminated
Aug 27
Waning Gibbous
Aug 28
Last Quarter
Sep 5
New
Sep 12
First Quarter
Sep 19
Full

Hourly Weather History & Observations

Time (EDT) Temp. Heat Index Dew Point Humidity Pressure Visibility Wind Dir Wind Speed Gust Speed Precip Events Conditions
12:53 AM 75.0 °F - 72.0 °F 90% 30.10 in 8.0 mi NE 4.6 mph - N/A   Clear
1:53 AM 73.9 °F - 70.0 °F 87% 30.09 in 8.0 mi NNE 3.5 mph - N/A   Clear
2:53 AM 73.0 °F - 70.0 °F 90% 30.08 in 8.0 mi NE 4.6 mph - N/A   Overcast
3:53 AM 73.0 °F - 70.0 °F 90% 30.06 in 8.0 mi NE 3.5 mph - N/A   Overcast
4:53 AM 73.0 °F - 70.0 °F 90% 30.05 in 7.0 mi NNE 4.6 mph - N/A   Overcast
5:53 AM 73.0 °F - 70.0 °F 90% 30.06 in 7.0 mi Calm Calm - N/A   Scattered Clouds
6:53 AM 73.0 °F - 70.0 °F 90% 30.07 in 8.0 mi Calm Calm - N/A   Mostly Cloudy
7:19 AM 71.6 °F - 69.8 °F 94% 30.08 in 5.0 mi Calm Calm - N/A   Overcast
7:31 AM 73.4 °F - 69.8 °F 88% 30.08 in 5.0 mi Calm Calm - N/A   Mostly Cloudy
7:53 AM 73.9 °F - 71.1 °F 91% 30.07 in 7.0 mi NNE 3.5 mph - N/A   Clear
8:53 AM 78.1 °F - 72.0 °F 81% 30.09 in 10.0 mi ENE 5.8 mph - N/A   Clear
9:53 AM 82.0 °F 86.7 °F 72.0 °F 71% 30.09 in 10.0 mi East 8.1 mph - N/A   Clear
10:29 AM 82.4 °F 86.3 °F 69.8 °F 66% 30.10 in 10.0 mi East 8.1 mph - N/A   Mostly Cloudy
10:40 AM 84.2 °F 88.4 °F 69.8 °F 62% 30.10 in 10.0 mi ESE 5.8 mph - N/A   Scattered Clouds
10:51 AM 84.2 °F 89.6 °F 71.6 °F 66% 30.10 in 10.0 mi Variable 5.8 mph - N/A   Mostly Cloudy
10:53 AM 84.9 °F 90.1 °F 71.1 °F 63% 30.09 in 10.0 mi East 6.9 mph - N/A   Mostly Cloudy
11:12 AM 84.2 °F 88.4 °F 69.8 °F 62% 30.09 in 10.0 mi East 8.1 mph - N/A   Scattered Clouds
11:53 AM 86.0 °F 89.4 °F 68.0 °F 55% 30.08 in 10.0 mi ENE 8.1 mph - N/A   Partly Cloudy
12:53 PM 84.9 °F 88.2 °F 68.0 °F 57% 30.06 in 10.0 mi Variable 5.8 mph - 0.00 in   Overcast
1:53 PM 88.0 °F 91.4 °F 68.0 °F 51% 30.05 in 10.0 mi SE 6.9 mph - N/A   Partly Cloudy
2:53 PM 87.1 °F 90.6 °F 68.0 °F 53% 30.04 in 10.0 mi East 12.7 mph - N/A   Mostly Cloudy
3:53 PM 86.0 °F 90.1 °F 69.1 °F 57% 30.03 in 10.0 mi East 10.4 mph - N/A   Overcast
4:53 PM 84.9 °F 88.2 °F 68.0 °F 57% 30.02 in 10.0 mi East 5.8 mph - N/A   Scattered Clouds
5:53 PM 87.1 °F 89.9 °F 66.9 °F 51% 30.01 in 10.0 mi ESE 5.8 mph - N/A   Partly Cloudy
6:53 PM 82.9 °F 85.8 °F 68.0 °F 60% 30.01 in 10.0 mi East 4.6 mph - N/A   Overcast
7:53 PM 80.1 °F 82.9 °F 69.1 °F 69% 30.02 in 10.0 mi East 3.5 mph - N/A   Mostly Cloudy
8:21 PM 78.8 °F - 69.8 °F 74% 30.03 in 10.0 mi East 3.5 mph - N/A   Mostly Cloudy
8:53 PM 77.0 °F - 69.1 °F 76% 30.03 in 10.0 mi East 3.5 mph - N/A   Scattered Clouds
9:53 PM 75.9 °F - 69.1 °F 79% 30.04 in 9.0 mi ESE 3.5 mph - N/A   Clear
10:53 PM 77.0 °F - 70.0 °F 79% 30.06 in 9.0 mi ESE 3.5 mph - N/A   Mostly Cloudy
11:53 PM 75.0 °F - 70.0 °F 84% 30.05 in 9.0 mi Calm Calm - N/A   Mostly Cloudy